loading
DOY 203 | 2024-07-21T10:04:22Z

OBJECT F, 60208

Orbit data source: Space-Track

OBJECT F, 60208 is a satellite owned by U. Kansas (US) in LEO that was launched on Thu, 04 Jul 2024 UTC via a Firefly Alpha launch vehicle from the Air Force Western Test Range (AFWTR). Unknown objects in Earth's orbit typically refer to objects detected orbiting the Earth but have not yet been identified or cataloged. These objects could be anything from previously untracked satellites, spent rocket stages, debris from satellite collisions, or even natural meteoroids temporarily captured by Earth's gravity.

Loading next visibility...
Loading greatness...
OBJECT F details
NORAD ID60208
COSPAR ID
2024-125F
Orbit
LEO
Last TLE update4 days ago
Origin
Flag of USU. Kansas (US)
ManufacturerU. Kansas
BusCubesat 3U
MotorUnknown
Mass3 kg wet, 3 kg dry
Launch date (UTC)
2024-07-04 (2 weeks ago)
Launch vehicle
Firefly Alpha
Launch site
Air Force Western Test Range (AFWTR)
Object typeUnknown
Radar Cross SectionSmall (<0.1 m²)
Predictive object data (real-time)
Latitude66.90149°
Longitude-85.15398°
Altitude515.583 km
Speed7.614 km/s
Apparent Right ascension12h 56m 08s
Apparent Declination21° 31' 35"
Sunlit
Object is in daylight
Predictive observer data (real-time)
Local Sidereal Time23:02:34
Azimuth331.26° NNW
Elevation-23.093°
Doppler factor1
Orbital elements
Apogee522.212 km
Perigee485.362 km
Semi-major axis6,881.924 km
Eccentricity0.0026773
Inclination97.3221°
RAAN51.6293°
Arg. of periapsis209.43°
True anomaly150.69334°
Mean anomaly150.5429°
Mean motion3.8017 °/min
BSTAR0.00059652
Period94.69 mins
Definitive object data (Epoch: 2024-07-17T02:51:50.753Z)
Latitude-0.00007°
Longitude73.2394°
Altitude525.982 km
Speed7.591 km/s
True Right ascension03h 26m 31s
True Declination0° 00' 00"
Sunlit
Object was in daylight at TLE epoch
TLE from 4 days ago
0 OBJECT F
1 60208U 24125F   24199.11933743  .00012792  00000-0  59652-3 0  9997
2 60208  97.3221  51.6293 0026773 209.4300 150.5429 15.19674175  1970
Epoch: 2024-07-17T02:51Z
No data available

OBJECT F Visibility forecast

Observer location: 39.9160978°, -105.1181434

OBJECT F is not visible in the next 10 days
Span
Click to sort rows by Start time (UTC) header in descending order
Start Az.
Max El. time (UTC)
Max El. Az.
Max El.
End time (UTC)
End Az.